| time (UTC) | temp F | wind direction | speed knots | gust knots | rain 1hr in | rain 24hr in | rain mn in | humidity % | barometer mb |
| 20260505053543 | 61 | 42 | 9.6 | 15.6 | 0.00 | 0.00 | 0.00 | 53 | 1004.0 |
| 20260505053129 | 62 | 44 | 10.4 | 17.4 | 0.00 | 0.00 | 0.00 | 53 | 1003.9 |
| 20260505052543 | 62 | 36 | 11.3 | 17.4 | 0.00 | 0.00 | 0.00 | 53 | 1003.6 |
| 20260505052038 | 62 | 36 | 9.6 | 15.6 | 0.00 | 0.00 | 0.00 | 53 | 1003.6 |
| 20260505051653 | 62 | 44 | 11.3 | 15.6 | 0.00 | 0.00 | 0.00 | 53 | 1003.3 |
| 20260505051018 | 63 | 46 | 8.7 | 14.8 | 0.00 | 0.00 | 0.00 | 53 | 1003.4 |
| 20260505050519 | 63 | 46 | 9.6 | 14.8 | 0.00 | 0.00 | 0.00 | 53 | 1003.5 |
| 20260505050228 | 63 | 50 | 8.7 | 15.6 | 0.00 | 0.00 | 0.00 | 53 | 1003.6 |
| 20260505041711 | 65 | 54 | 4.3 | 12.2 | 0.00 | 0.00 | 0.00 | 55 | 1003.3 |
| 20260505041038 | 65 | 30 | 6.1 | 12.2 | 0.00 | 0.00 | 0.00 | 56 | 1003.4 |
| 20260505040522 | 64 | 51 | 3.5 | 7.8 | 0.00 | 0.00 | 0.00 | 58 | 1003.6 |
| 20260505040225 | 64 | 46 | 3.5 | 10.4 | 0.00 | 0.00 | 0.00 | 58 | 1003.1 |
| 20260505035548 | 63 | 53 | 6.1 | 8.7 | 0.00 | 0.00 | 0.00 | 59 | 1003.0 |
| 20260505035034 | 63 | 69 | 4.3 | 7.0 | 0.00 | 0.00 | 0.00 | 59 | 1003.1 |
| 20260505034721 | 62 | 82 | 0.0 | 0.0 | 0.00 | 0.00 | 0.00 | 60 | 1003.1 |
| 20260505034042 | 62 | 60 | 0.0 | 0.0 | 0.00 | 0.00 | 0.00 | 59 | 1003.0 |
| 20260505033531 | 63 | 89 | 0.0 | 0.0 | 0.00 | 0.00 | 0.00 | 58 | 1003.0 |
| 20260505033217 | 63 | 56 | 0.0 | 0.0 | 0.00 | 0.00 | 0.00 | 58 | 1003.0 |
| 20260505032542 | 64 | 64 | 0.0 | 5.2 | 0.00 | 0.00 | 0.00 | 57 | 1003.0 |
| 20260505032031 | 64 | 84 | 2.6 | 5.2 | 0.00 | 0.00 | 0.00 | 56 | 1002.8 |
| 20260505031710 | 65 | 41 | 0.0 | 0.0 | 0.00 | 0.00 | 0.00 | 54 | 1003.0 |
| 20260505031034 | 66 | 41 | 0.0 | 4.3 | 0.00 | 0.00 | 0.00 | 53 | 1002.8 |
| 20260505030549 | 67 | 47 | 0.9 | 7.0 | 0.00 | 0.00 | 0.00 | 52 | 1002.7 |
| 20260505030221 | 67 | 37 | 2.6 | 7.0 | 0.00 | 0.00 | 0.00 | 50 | 1002.5 |
| 20260505025521 | 67 | 34 | 4.3 | 12.2 | 0.00 | 0.00 | 0.00 | 52 | 1002.4 |
| 20260505025027 | 65 | 5 | 7.8 | 12.2 | 0.00 | 0.00 | 0.00 | 54 | 1002.2 |
| 20260505024703 | 64 | 26 | 5.2 | 10.4 | 0.00 | 0.00 | 0.00 | 56 | 1002.2 |
| 20260505024032 | 64 | 13 | 4.3 | 7.0 | 0.00 | 0.00 | 0.00 | 58 | 1002.2 |
| 20260505023537 | 64 | 24 | 0.9 | 4.3 | 0.00 | 0.00 | 0.00 | 60 | 1002.1 |
| 20260505023159 | 64 | 33 | 0.0 | 0.0 | 0.00 | 0.00 | 0.00 | 61 | 1002.1 |
| 20260505022534 | 64 | 88 | 0.0 | 0.0 | 0.00 | 0.00 | 0.00 | 60 | 1002.1 |
| 20260505022028 | 64 | 70 | 0.0 | 0.0 | 0.00 | 0.00 | 0.00 | 60 | 1002.1 |
| 20260505021720 | 63 | 57 | 0.0 | 0.0 | 0.00 | 0.00 | 0.00 | 61 | 1002.0 |
| 20260505021026 | 63 | 50 | 0.0 | 0.0 | 0.00 | 0.00 | 0.00 | 62 | 1002.1 |
| 20260505020530 | 64 | 74 | 0.0 | 0.0 | 0.00 | 0.00 | 0.00 | 63 | 1001.7 |
| 20260505020223 | 64 | 130 | 0.0 | 0.0 | 0.00 | 0.00 | 0.00 | 61 | 1001.6 |
| 20260505015526 | 64 | 138 | 0.0 | 0.0 | 0.00 | 0.00 | 0.00 | 61 | 1001.5 |
| 20260505015045 | 65 | 132 | 0.0 | 0.0 | 0.00 | 0.00 | 0.00 | 61 | 1001.5 |
| 20260505014709 | 66 | 138 | 0.0 | 0.0 | 0.00 | 0.00 | 0.00 | 61 | 1001.7 |
| 20260505014026 | 67 | 142 | 0.0 | 0.0 | 0.00 | 0.00 | 0.00 | 60 | 1001.7 |
| 20260505013527 | 68 | 98 | 0.0 | 0.0 | 0.00 | 0.00 | 0.00 | 57 | 1001.8 |
| 20260505013219 | 68 | 69 | 0.0 | 0.0 | 0.00 | 0.00 | 0.00 | 53 | 1001.9 |
| 20260505012529 | 70 | 95 | 0.0 | 0.0 | 0.00 | 0.00 | 0.00 | 56 | 1002.0 |
| 20260505012022 | 70 | 101 | 0.0 | 0.0 | 0.00 | 0.00 | 0.00 | 48 | 1002.0 |
| 20260505011714 | 70 | 85 | 0.0 | 0.0 | 0.00 | 0.00 | 0.00 | 53 | 1002.0 |
| 20260505011026 | 71 | 51 | 0.0 | 4.3 | 0.00 | 0.00 | 0.00 | 51 | 1001.9 |
| 20260505010525 | 71 | 47 | 0.9 | 4.3 | 0.00 | 0.00 | 0.00 | 47 | 1002.2 |
| 20260505010222 | 71 | 5 | 1.7 | 3.5 | 0.00 | 0.00 | 0.00 | 48 | 1002.0 |
| 20260505005545 | 71 | 317 | 0.0 | 0.0 | 0.00 | 0.00 | 0.00 | 48 | 1002.3 |
| 20260505005042 | 71 | 33 | 0.0 | 0.0 | 0.00 | 0.00 | 0.00 | 50 | 1002.3 |
| 20260505004720 | 72 | 103 | 0.0 | 0.9 | 0.00 | 0.00 | 0.00 | 48 | 1002.3 |
| 20260505004038 | 72 | 130 | 0.0 | 3.5 | 0.00 | 0.00 | 0.00 | 46 | 1002.6 |
| 20260505003535 | 73 | 135 | 1.7 | 5.2 | 0.00 | 0.00 | 0.00 | 44 | 1002.2 |
| 20260505003213 | 73 | 142 | 3.5 | 7.8 | 0.00 | 0.00 | 0.00 | 42 | 1002.4 |
| 20260505002538 | 74 | 236 | 4.3 | 19.1 | 0.00 | 0.00 | 0.00 | 42 | 1002.7 |
| 20260505002037 | 75 | 254 | 9.6 | 19.1 | 0.00 | 0.00 | 0.00 | 39 | 1003.0 |
| 20260505001631 | 77 | 232 | 8.7 | 21.7 | 0.00 | 0.00 | 0.00 | 35 | 1003.0 |
| 20260505001037 | 78 | 96 | 7.0 | 21.7 | 0.00 | 0.00 | 0.00 | 32 | 1003.5 |
| 20260505000530 | 78 | 296 | 14.8 | 20.9 | 0.00 | 0.00 | 0.00 | 29 | 1002.6 |
| 20260505000213 | 78 | 290 | 7.0 | 13.0 | 0.00 | 0.00 | 0.00 | 32 | 1002.3 |
| 20260504235518 | 78 | 271 | 0.0 | 0.9 | 0.00 | 0.00 | 0.00 | 31 | 1002.1 |
| 20260504235042 | 79 | 253 | 0.0 | 0.9 | 0.00 | 0.00 | 0.00 | 30 | 1001.9 |
| 20260504234654 | 79 | 260 | 0.0 | 0.0 | 0.00 | 0.00 | 0.00 | 29 | 1002.1 |
| 20260504234040 | 79 | 239 | 0.0 | 0.9 | 0.00 | 0.00 | 0.00 | 29 | 1001.8 |
| 20260504233541 | 79 | 238 | 0.0 | 0.9 | 0.00 | 0.00 | 0.00 | 29 | 1001.8 |
| 20260504233156 | 79 | 228 | 0.0 | 4.3 | 0.00 | 0.00 | 0.00 | 29 | 1001.7 |
| 20260504232539 | 79 | 202 | 1.7 | 5.2 | 0.00 | 0.00 | 0.00 | 29 | 1001.8 |
| 20260504232052 | 79 | 161 | 3.5 | 7.8 | 0.00 | 0.00 | 0.00 | 29 | 1001.7 |
| 20260504231643 | 80 | 160 | 5.2 | 10.4 | 0.00 | 0.00 | 0.00 | 29 | 1001.6 |
| 20260504231038 | 80 | 146 | 6.1 | 10.4 | 0.00 | 0.00 | 0.00 | 29 | 1001.7 |
| 20260504230521 | 80 | 121 | 7.8 | 11.3 | 0.00 | 0.00 | 0.00 | 29 | 1001.9 |
| 20260504230213 | 79 | 99 | 7.0 | 11.3 | 0.00 | 0.00 | 0.00 | 29 | 1001.6 |
| 20260504225545 | 79 | 142 | 7.8 | 11.3 | 0.00 | 0.00 | 0.00 | 31 | 1001.9 |
| 20260504225033 | 79 | 143 | 9.6 | 14.8 | 0.00 | 0.00 | 0.00 | 30 | 1002.2 |
| 20260504224652 | 80 | 165 | 9.6 | 16.5 | 0.00 | 0.00 | 0.00 | 29 | 1002.0 |
| 20260504224041 | 81 | 161 | 13.0 | 16.5 | 0.00 | 0.00 | 0.00 | 28 | 1001.9 |
| 20260504223525 | 82 | 163 | 9.6 | 16.5 | 0.00 | 0.00 | 0.00 | 26 | 1002.0 |
| 20260504223152 | 83 | 158 | 9.6 | 15.6 | 0.00 | 0.00 | 0.00 | 27 | 1002.2 |
| 20260504222534 | 85 | 188 | 12.2 | 15.6 | 0.00 | 0.00 | 0.00 | 26 | 1002.4 |
| 20260504222045 | 85 | 132 | 8.7 | 13.9 | 0.00 | 0.00 | 0.00 | 25 | 1002.2 |
| 20260504221703 | 85 | 101 | 10.4 | 13.9 | 0.00 | 0.00 | 0.00 | 25 | 1002.1 |
| 20260504221033 | 85 | 107 | 8.7 | 12.2 | 0.00 | 0.00 | 0.00 | 25 | 1002.2 |
| 20260504220533 | 84 | 134 | 8.7 | 11.3 | 0.00 | 0.00 | 0.00 | 26 | 1002.1 |
| 20260504220201 | 84 | 110 | 7.8 | 12.2 | 0.00 | 0.00 | 0.00 | 25 | 1002.2 |
| 20260504215534 | 85 | 95 | 7.8 | 12.2 | 0.00 | 0.00 | 0.00 | 24 | 1002.2 |
| 20260504215031 | 85 | 112 | 8.7 | 13.0 | 0.00 | 0.00 | 0.00 | 23 | 1002.1 |
| 20260504214653 | 86 | 105 | 9.6 | 14.8 | 0.00 | 0.00 | 0.00 | 22 | 1002.0 |
| 20260504214045 | 87 | 155 | 9.6 | 14.8 | 0.00 | 0.00 | 0.00 | 21 | 1001.9 |
| 20260504213544 | 87 | 111 | 6.1 | 12.2 | 0.00 | 0.00 | 0.00 | 20 | 1002.1 |
| 20260504213153 | 86 | 96 | 5.2 | 12.2 | 0.00 | 0.00 | 0.00 | 19 | 1002.2 |
| 20260504212527 | 87 | 121 | 6.1 | 14.8 | 0.00 | 0.00 | 0.00 | 20 | 1002.2 |
| 20260504212033 | 87 | 101 | 10.4 | 14.8 | 0.00 | 0.00 | 0.00 | 21 | 1002.3 |
| 20260504211700 | 87 | 132 | 10.4 | 14.8 | 0.00 | 0.00 | 0.00 | 20 | 1002.2 |
| 20260504211019 | 87 | 63 | 6.1 | 13.0 | 0.00 | 0.00 | 0.00 | 22 | 1002.4 |
| 20260504210526 | 87 | 98 | 6.1 | 13.9 | 0.00 | 0.00 | 0.00 | 22 | 1002.5 |
| 20260504210218 | 88 | 125 | 10.4 | 19.1 | 0.00 | 0.00 | 0.00 | 21 | 1002.6 |
| 20260504205519 | 88 | 116 | 8.7 | 20.0 | 0.00 | 0.00 | 0.00 | 22 | 1002.4 |
| 20260504205045 | 88 | 125 | 9.6 | 15.6 | 0.00 | 0.00 | 0.00 | 23 | 1002.7 |
| 20260504204619 | 88 | 55 | 3.5 | 10.4 | 0.00 | 0.00 | 0.00 | 21 | 1002.8 |
| 20260504204035 | 88 | 82 | 6.1 | 10.4 | 0.00 | 0.00 | 0.00 | 20 | 1002.9 |
| 20260504203545 | 87 | 86 | 4.3 | 13.0 | 0.00 | 0.00 | 0.00 | 20 | 1002.8 |
| 20260504203217 | 87 | 105 | 4.3 | 11.3 | 0.00 | 0.00 | 0.00 | 19 | 1003.0 |
| 20260504202536 | 87 | 89 | 5.2 | 12.2 | 0.00 | 0.00 | 0.00 | 20 | 1003.2 |
| 20260504202019 | 87 | 103 | 7.8 | 12.2 | 0.00 | 0.00 | 0.00 | 20 | 1003.3 |
| 20260504201719 | 88 | 141 | 6.1 | 10.4 | 0.00 | 0.00 | 0.00 | 19 | 1003.3 |
| 20260504201026 | 88 | 103 | 4.3 | 11.3 | 0.00 | 0.00 | 0.00 | 20 | 1003.4 |
| 20260504200546 | 88 | 93 | 5.2 | 11.3 | 0.00 | 0.00 | 0.00 | 19 | 1003.4 |
| 20260504200211 | 88 | 54 | 4.3 | 10.4 | 0.00 | 0.00 | 0.00 | 18 | 1003.5 |
| 20260504195522 | 88 | 86 | 2.6 | 12.2 | 0.00 | 0.00 | 0.00 | 18 | 1003.5 |
| 20260504195027 | 88 | 80 | 4.3 | 13.0 | 0.00 | 0.00 | 0.00 | 17 | 1003.6 |
| 20260504194642 | 88 | 94 | 7.8 | 13.0 | 0.00 | 0.00 | 0.00 | 18 | 1003.6 |
| 20260504194018 | 88 | 83 | 7.0 | 13.9 | 0.00 | 0.00 | 0.00 | 18 | 1003.8 |
| 20260504193543 | 88 | 70 | 7.0 | 13.9 | 0.00 | 0.00 | 0.00 | 18 | 1003.8 |
| 20260504193157 | 87 | 59 | 7.8 | 11.3 | 0.00 | 0.00 | 0.00 | 19 | 1003.7 |
| 20260504192546 | 87 | 78 | 4.3 | 13.0 | 0.00 | 0.00 | 0.00 | 17 | 1003.8 |
| 20260504192034 | 87 | 42 | 3.5 | 13.0 | 0.00 | 0.00 | 0.00 | 19 | 1003.9 |
| 20260504191635 | 87 | 86 | 4.3 | 14.8 | 0.00 | 0.00 | 0.00 | 18 | 1003.9 |
| 20260504191043 | 87 | 57 | 7.0 | 14.8 | 0.00 | 0.00 | 0.00 | 18 | 1004.1 |
| 20260504190520 | 86 | 78 | 6.1 | 12.2 | 0.00 | 0.00 | 0.00 | 17 | 1004.3 |
| 20260504190228 | 86 | 115 | 6.1 | 13.0 | 0.00 | 0.00 | 0.00 | 18 | 1004.4 |
| 20260504185542 | 86 | 92 | 6.1 | 13.0 | 0.00 | 0.00 | 0.00 | 18 | 1004.5 |
| 20260504185038 | 86 | 54 | 5.2 | 10.4 | 0.00 | 0.00 | 0.00 | 19 | 1004.5 |
| 20260504184636 | 86 | 24 | 5.2 | 11.3 | 0.00 | 0.00 | 0.00 | 19 | 1004.5 |
| 20260504184024 | 87 | 74 | 6.1 | 13.9 | 0.00 | 0.00 | 0.00 | 19 | 1004.6 |
| 20260504183521 | 86 | 96 | 8.7 | 13.9 | 0.00 | 0.00 | 0.00 | 20 | 1004.5 |
| 20260504183138 | 86 | 65 | 7.8 | 13.0 | 0.00 | 0.00 | 0.00 | 19 | 1004.6 |
| 20260504182524 | 86 | 38 | 6.1 | 13.0 | 0.00 | 0.00 | 0.00 | 19 | 1004.7 |
| 20260504182031 | 86 | 59 | 7.8 | 12.2 | 0.00 | 0.00 | 0.00 | 19 | 1004.8 |
| 20260504181624 | 85 | 51 | 6.1 | 11.3 | 0.00 | 0.00 | 0.00 | 20 | 1004.4 |
| 20260504181045 | 85 | 82 | 5.2 | 11.3 | 0.00 | 0.00 | 0.00 | 20 | 1004.6 |
| 20260504180535 | 85 | 55 | 4.3 | 11.3 | 0.00 | 0.00 | 0.00 | 20 | 1004.6 |
| 20260504180220 | 85 | 18 | 5.2 | 11.3 | 0.00 | 0.00 | 0.00 | 20 | 1004.9 |
| 20260504175521 | 85 | 70 | 7.0 | 11.3 | 0.00 | 0.00 | 0.00 | 19 | 1004.8 |
| 20260504175021 | 85 | 32 | 3.5 | 10.4 | 0.00 | 0.00 | 0.00 | 20 | 1004.9 |
| 20260504174653 | 85 | 80 | 4.3 | 11.3 | 0.00 | 0.00 | 0.00 | 22 | 1005.0 |
| 20260504174025 | 84 | 93 | 5.2 | 10.4 | 0.00 | 0.00 | 0.00 | 21 | 1004.9 |
| 20260504173538 | 83 | 81 | 3.5 | 9.6 | 0.00 | 0.00 | 0.00 | 21 | 1005.0 |
| 20260504173144 | 83 | 83 | 4.3 | 12.2 | 0.00 | 0.00 | 0.00 | 22 | 1005.0 |
| 20260504172528 | 83 | 38 | 5.2 | 12.2 | 0.00 | 0.00 | 0.00 | 23 | 1005.2 |
| 20260504172042 | 83 | 43 | 4.3 | 12.2 | 0.00 | 0.00 | 0.00 | 24 | 1005.2 |
| 20260504171702 | 82 | 46 | 3.5 | 7.8 | 0.00 | 0.00 | 0.00 | 24 | 1005.3 |
| 20260504171031 | 82 | 74 | 1.7 | 13.0 | 0.00 | 0.00 | 0.00 | 25 | 1005.3 |
| 20260504170522 | 82 | 28 | 5.2 | 13.0 | 0.00 | 0.00 | 0.00 | 24 | 1005.4 |
| 20260504170212 | 82 | 16 | 3.5 | 10.4 | 0.00 | 0.00 | 0.00 | 25 | 1005.2 |
| 20260504160129 | 78 | 269 | 0.0 | 7.0 | 0.00 | 0.00 | 0.00 | 32 | 1004.8 |
| 20260504151027 | 73 | 238 | 5.2 | 9.6 | 0.00 | 0.00 | 0.00 | 37 | 1004.6 |
| 20260504150535 | 72 | 250 | 5.2 | 10.4 | 0.00 | 0.00 | 0.00 | 39 | 1004.7 |
| 20260504150152 | 71 | 232 | 6.1 | 10.4 | 0.00 | 0.00 | 0.00 | 39 | 1004.8 |
| 20260504141042 | 66 | 242 | 5.2 | 10.4 | 0.00 | 0.00 | 0.00 | 48 | 1004.9 |
| 20260504140534 | 65 | 248 | 7.0 | 10.4 | 0.00 | 0.00 | 0.00 | 48 | 1004.9 |
| 20260504140149 | 64 | 240 | 6.1 | 10.4 | 0.00 | 0.00 | 0.00 | 49 | 1004.9 |